Weather History for Yuma MCAS, AZ

Change the Weather History Date:

Thursday, April 26, 2012

  Actual Average Record
Temperature  
Mean Temperature 72 °F 76 °F  
Max Temperature 82 °F 89 °F 104 °F (2004)
Min Temperature 61 °F 62 °F 46 °F (1921)
Degree Days  
Heating Degree Days 0 0  
Month to date heating degree days 9 12  
Since 1 July heating degree days 697 685  
Cooling Degree Days 7 11  
Month to date cooling degree days 233 206  
Year to date cooling degree days 334 359  
Growing Degree Days 21 (Base 50)    
Moisture  
Dew Point 47 °F    
Average Humidity 50    
Maximum Humidity 73    
Minimum Humidity 26    
Precipitation  
Precipitation 0.05 in 0.00 in 0.71 in (1931)
Month to date precipitation 0.05 0.14  
Year to date precipitation 0.09 1.23  
Sea Level Pressure  
Sea Level Pressure 29.89 in    
Wind  
Wind Speed 8 mph (West)    
Max Wind Speed 16 mph    
Max Gust Speed 22 mph    
Visibility 10 miles    
Events Rain    
T = Trace of Precipitation, MM = Missing Value Source: NWS Daily Summary

Daily Weather History Graph

Daily Weather History Graph

Search for Another Location

Airport:

Trip Planner

Search our weather history database for the weather conditions in past years. The results will help you decide how hot, cold, wet, or windy it might be!

Date:

Astronomy

Apr. 26, 2012 Rise Set
Actual Time 5:55 AM MST 7:16 PM MST
Civil Twilight 5:30 AM MST 7:42 PM MST
Nautical Twilight 4:59 AM MST 8:13 PM MST
Astronomical Twilight 4:26 AM MST 8:46 PM MST
Moon 9:46 AM MST (4/26) No Moon Set
Length of Visible Light 14h 12m
Length of Day
13h 20m
Waxing Crescent, 25% of the Moon is Illuminated
Apr 26
Waxing Crescent
Apr 29
First Quarter
May 5
Full
May 12
Last Quarter
May 20
New

Hourly Weather History & Observations

Time (MST) Temp. Dew Point Humidity Pressure Visibility Wind Dir Wind Speed Gust Speed Precip Events Conditions
12:55 AM 73.0 °F 50.0 °F 44% 29.75 in 10.0 mi Calm Calm - N/A   Clear
1:55 AM 71.1 °F 43.0 °F 36% 29.76 in 5.0 mi NW 9.2 mph - N/A   Haze
3:55 AM 68.0 °F 46.9 °F 47% 29.79 in 8.0 mi WNW 9.2 mph - N/A   Clear
4:55 AM 66.9 °F 48.0 °F 51% 29.81 in 10.0 mi WNW 11.5 mph - N/A   Overcast
5:55 AM 61.0 °F 55.0 °F 81% 29.83 in 7.0 mi NE 6.9 mph - 0.04 in Rain Light Rain
6:55 AM 62.1 °F 55.0 °F 78% 29.86 in 10.0 mi Calm Calm - 0.01 in   Mostly Cloudy
7:55 AM 64.9 °F 55.0 °F 70% 29.87 in 10.0 mi Calm Calm - N/A   Mostly Cloudy
8:55 AM 68.0 °F 52.0 °F 56% 29.91 in 10.0 mi SSW 3.5 mph - N/A   Scattered Clouds
9:55 AM 72.0 °F 52.0 °F 49% 29.93 in 10.0 mi NW 8.1 mph - N/A   Scattered Clouds
10:55 AM 75.0 °F 45.0 °F 34% 29.95 in 10.0 mi West 12.7 mph - N/A   Scattered Clouds
11:55 AM 75.9 °F 44.1 °F 32% 29.95 in 10.0 mi West 13.8 mph - N/A   Scattered Clouds
12:55 PM 78.1 °F 43.0 °F 29% 29.95 in 10.0 mi WSW 9.2 mph - N/A   Scattered Clouds
1:55 PM 78.1 °F 45.0 °F 31% 29.94 in 10.0 mi SSW 9.2 mph - N/A   Scattered Clouds
2:55 PM 80.1 °F 43.0 °F 27% 29.91 in 10.0 mi WSW 9.2 mph 18.4 mph N/A   Scattered Clouds
3:55 PM 80.1 °F 42.1 °F 26% 29.90 in 10.0 mi West 10.4 mph - N/A   Scattered Clouds
4:55 PM 81.0 °F 43.0 °F 26% 29.90 in 10.0 mi WSW 6.9 mph - N/A   Partly Cloudy
5:55 PM 81.0 °F 43.0 °F 26% 29.89 in 10.0 mi SSW 10.4 mph - N/A   Partly Cloudy
6:55 PM 77.0 °F 44.1 °F 31% 29.89 in 10.0 mi WNW 11.5 mph - N/A   Partly Cloudy
7:55 PM 75.0 °F 43.0 °F 32% 29.91 in 10.0 mi NW 9.2 mph 19.6 mph N/A   Clear
8:55 PM 72.0 °F 45.0 °F 38% 29.93 in 10.0 mi NW 6.9 mph - N/A   Clear
9:55 PM 70.0 °F 45.0 °F 41% 29.94 in 10.0 mi NW 8.1 mph - N/A   Clear
10:55 PM 69.1 °F 45.0 °F 42% 29.94 in 10.0 mi WNW 11.5 mph 16.1 mph N/A   Clear
11:55 PM 66.9 °F 45.0 °F 45% 29.95 in 10.0 mi WNW 8.1 mph - N/A   Clear